Lær å fly hos oss!

Oslo Flyveklubb har i mange år utdannet flygere til privatflygersetifikat PPL(A). Skolen har godkjenning for å drive utdanning til teoriundervisning til PPL(A), privatflygersertifikat PPL (A) og mørkeflyging.

Gi bort en flytur i gave

På en introduksjonstur vil kandidaten være med på forberedelser til, og gjennomføring av en flytur på en times varighet med en av våre instruktører.

Hvor vi holder til?

Flyplassen ligger i Lillestrøm 10 minutter med tog fra Oslo. Følg storgata fra Lillestrøms sentrum så vill man se plassen på venstre side.
Metar/TAF Gardermoen:

ENGM 210150Z 05003KT 6000 -SN OVC004 00/M00 Q0983

TAF ENGM 201700Z 2018/2118 05008KT 7000 -SN SCT003 OVC007 TEMPO 2018/2105 1200 SN BR VV004 BECMG 2104/2106 16010KT TEMPO 2105/2116 2000 RASN BR OVC002 TEMPO 2116/2118 1000 SHSNRA VV004